Weather in Mykulychyn

Ukraine / Ivano-Frankovsk District     48°24′16″N   24°36′33″E
temp.,
°C
wind,
m/s
gust,
m/s
humid.,
%
clouds,
%
prec.,
mm/h
press.,
hPa
HPBL,
m
14 may, fri
fri1400:00+7ssw239398 0.0 100460
03:00+9ssw268266 0.0 1004516
06:00+8ssw2587100 0.0 1003343
09:00+11ssw2775100 0.0 10041085
12:00+11ssw2672100 0.1 10051234
15:00+10sw3873100 0.1 10061104
18:00+9sw31080100 0.1 10071141
21:00+9wsw41176100 0.1 10071296
15 may, sat
sat1500:00+8sw3978100 0.1 1008979
03:00+8sw2785100 0.1 1009554
06:00+7sw2387100 0.0 1010160
09:00+9ssw2277100 0.1 1011350
12:00+10sw127097 0.0 1012665
15:00+16ene1250100 0.1 10101722
18:00+12e228245 1.3 1011506
21:00+8sse11965 2.1 101112
16 may, sun
sun1600:00+7ssw2295100 0.0 101135
03:00+7sw2294100 0.0 101137
06:00+8sw2291100 0.0 101034
09:00+13ssw12735 0.0 1009237
12:00+17ssw3451100 0.3 10071665
15:00+16sw4761100 1.1 10071266
18:00+14sw3768100 0.3 10071082
21:00+10ssw2385100 0.5 100870
17 may, mon
mon1700:00+8sw2390100 0.0 100964
03:00+7sw229132 0.0 101051
06:00+8sw229099 0.0 101035
09:00+11se127179 0.0 1010308
12:00+17s23460 0.0 10081336
15:00+20sw243569 0.0 10062674
18:00+16e1263100 0.8 1006745
21:00+10wsw2394100 2.6 100869
18 may, tue
tue1800:00+9s1196100 0.6 100828
03:00+9w1198100 0.9 100933
06:00+9n1299100 0.8 1009137
09:00+10nne128999 1.2 1010395
12:00+10sw1290100 3.3 1010313
15:00+10ssw1182100 11.8 1010464
18:00+8nw1195100 0.9 101045
21:00+8w1193100 1.1 101113